AFL6970 ULMM-EFRO

Flight info

Callsign AFL6970
Flight time 0h 47m
Altitude 32000
Route PELOR2P PELOR N2 KELEK/N0418F320 DCT AMUBA DCT ROTKO
Aircraft A20N/M-SDE2E3FGHIRWXY/LB1

Departure

Time 2026-04-22 17:54
Airport Emperor Nicholas II Murmansk Airport (ULMM)

Arrival

Time 2026-04-22 18:42
Airport Rovaniemi Airport (EFRO)
Time Latitude Longitude Altitude Speed Heading
2026-04-22 17:30 68.78344 32.75520 886 ft 0 kts 326°
2026-04-22 17:48 68.78345 32.75518 886 ft 0 kts 326°
2026-04-22 17:48 68.78352 32.75505 886 ft 1 kts 326°
2026-04-22 17:48 68.78366 32.75479 886 ft 3 kts 330°
2026-04-22 17:49 68.78388 32.75444 886 ft 4 kts 320°
2026-04-22 17:49 68.78391 32.75369 887 ft 4 kts 238°
2026-04-22 17:49 68.78371 32.75283 887 ft 5 kts 237°
2026-04-22 17:49 68.78359 32.75231 887 ft 0 kts 238°
2026-04-22 17:50 68.78358 32.75226 887 ft 0 kts 238°
2026-04-22 17:50 68.78355 32.75212 887 ft 0 kts 239°
2026-04-22 17:50 68.78354 32.75210 887 ft 0 kts 239°
2026-04-22 17:51 68.78345 32.75169 887 ft 5 kts 238°
2026-04-22 17:51 68.78310 32.75028 887 ft 11 kts 232°
2026-04-22 17:51 68.78240 32.74992 887 ft 12 kts 154°
2026-04-22 17:51 68.78151 32.75144 887 ft 18 kts 147°
2026-04-22 17:52 68.78031 32.75367 887 ft 23 kts 145°
2026-04-22 17:52 68.77887 32.75639 886 ft 27 kts 147°
2026-04-22 17:52 68.77717 32.75947 886 ft 30 kts 147°
2026-04-22 17:52 68.77557 32.76241 886 ft 26 kts 146°
2026-04-22 17:53 68.77445 32.76506 886 ft 14 kts 111°
2026-04-22 17:53 68.77443 32.76804 886 ft 18 kts 86°
2026-04-22 17:53 68.77412 32.77086 886 ft 11 kts 147°
2026-04-22 17:53 68.77338 32.77162 886 ft 11 kts 215°
2026-04-22 17:54 68.77284 32.76933 886 ft 16 kts 257°
2026-04-22 17:54 68.77315 32.76693 886 ft 2 kts 325°
2026-04-22 17:54 68.77354 32.76628 886 ft 31 kts 328°
2026-04-22 17:54 68.77733 32.75920 887 ft 98 kts 326°
2026-04-22 17:55 68.78471 32.74553 909 ft 149 kts 325°
2026-04-22 17:55 68.79242 32.72877 1637 ft 136 kts 319°
2026-04-22 17:55 68.79874 32.71135 2382 ft 130 kts 326°
2026-04-22 17:55 68.80655 32.69775 2930 ft 138 kts 334°
2026-04-22 17:56 68.81529 32.68400 3416 ft 154 kts 335°
2026-04-22 17:56 68.82493 32.66795 3879 ft 172 kts 334°
2026-04-22 17:56 68.83569 32.64924 4301 ft 195 kts 333°
2026-04-22 17:56 68.84728 32.62819 5034 ft 205 kts 332°
2026-04-22 17:57 68.85910 32.60616 5912 ft 209 kts 329°
2026-04-22 17:57 68.86928 32.57516 6545 ft 236 kts 304°
2026-04-22 17:57 68.87303 32.52892 7150 ft 267 kts 275°
2026-04-22 17:57 68.86726 32.47847 8016 ft 291 kts 246°
2026-04-22 17:58 68.85578 32.43211 8878 ft 297 kts 242°
2026-04-22 17:58 68.84393 32.38518 9674 ft 302 kts 243°
2026-04-22 17:58 68.83142 32.33779 10378 ft 313 kts 237°
2026-04-22 17:58 68.81647 32.29177 10790 ft 334 kts 230°
2026-04-22 17:59 68.79913 32.24582 11160 ft 353 kts 227°
2026-04-22 17:59 68.78068 32.19850 11550 ft 370 kts 227°
2026-04-22 17:59 68.76166 32.15009 12159 ft 377 kts 227°
2026-04-22 17:59 68.74244 32.10110 13026 ft 378 kts 227°
2026-04-22 18:00 68.72975 32.06871 13606 ft 377 kts 227°
2026-04-22 18:00 68.70418 32.00321 14545 ft 382 kts 227°
2026-04-22 18:00 68.68459 31.95299 15186 ft 388 kts 228°
2026-04-22 18:00 68.66469 31.90219 15824 ft 392 kts 228°
2026-04-22 18:01 68.64450 31.85070 16458 ft 397 kts 228°
2026-04-22 18:01 68.62585 31.79498 17047 ft 391 kts 244°
2026-04-22 18:01 68.61530 31.72955 17663 ft 375 kts 265°
2026-04-22 18:01 68.61214 31.65994 18280 ft 367 kts 276°
2026-04-22 18:02 68.61067 31.58888 18838 ft 371 kts 277°
2026-04-22 18:02 68.60928 31.51840 19361 ft 376 kts 277°
2026-04-22 18:02 68.60773 31.44658 19781 ft 383 kts 277°
2026-04-22 18:02 68.60603 31.37326 20132 ft 392 kts 277°
2026-04-22 18:03 68.60411 31.29783 20579 ft 397 kts 277°
2026-04-22 18:03 68.60206 31.22212 21107 ft 399 kts 277°
2026-04-22 18:03 68.59992 31.14575 21572 ft 403 kts 278°
2026-04-22 18:03 68.59777 31.06884 22056 ft 405 kts 278°
2026-04-22 18:04 68.59559 30.99220 22505 ft 408 kts 279°
2026-04-22 18:04 68.59335 30.91449 22910 ft 412 kts 279°
2026-04-22 18:04 68.59104 30.83653 23303 ft 415 kts 281°
2026-04-22 18:04 68.58869 30.75742 23688 ft 419 kts 281°
2026-04-22 18:05 68.58628 30.67797 24099 ft 421 kts 282°
2026-04-22 18:05 68.58382 30.59774 24567 ft 421 kts 282°
2026-04-22 18:05 68.58136 30.51784 24946 ft 424 kts 282°
2026-04-22 18:05 68.57884 30.43687 25264 ft 429 kts 282°
2026-04-22 18:06 68.57627 30.35571 25591 ft 433 kts 282°
2026-04-22 18:06 68.57362 30.27438 26017 ft 434 kts 281°
2026-04-22 18:06 68.57080 30.19120 26389 ft 437 kts 281°
2026-04-22 18:06 68.56802 30.10843 26647 ft 442 kts 281°
2026-04-22 18:07 68.56517 30.02456 26993 ft 444 kts 281°
2026-04-22 18:07 68.56219 29.94103 27578 ft 440 kts 281°
2026-04-22 18:07 68.55919 29.85852 28089 ft 438 kts 281°
2026-04-22 18:07 68.55618 29.77526 28571 ft 437 kts 282°
2026-04-22 18:08 68.55322 29.69408 29013 ft 436 kts 282°
2026-04-22 18:08 68.55020 29.61190 29459 ft 435 kts 282°
2026-04-22 18:08 68.54716 29.52985 29916 ft 434 kts 282°
2026-04-22 18:08 68.54404 29.44812 30366 ft 432 kts 282°
2026-04-22 18:09 68.54097 29.36669 30685 ft 433 kts 282°
2026-04-22 18:09 68.53789 29.28542 30892 ft 437 kts 281°
2026-04-22 18:09 68.53465 29.20185 31164 ft 438 kts 280°
2026-04-22 18:09 68.53135 29.11943 31487 ft 437 kts 280°
2026-04-22 18:10 68.52804 29.03803 31773 ft 437 kts 279°
2026-04-22 18:10 68.52121 28.87260 31861 ft 439 kts 279°
2026-04-22 18:11 68.51417 28.70817 31872 ft 438 kts 278°
2026-04-22 18:11 68.50800 28.62552 31890 ft 452 kts 270°
2026-04-22 18:11 68.49734 28.54415 31894 ft 470 kts 261°
2026-04-22 18:11 68.48171 28.46443 31888 ft 484 kts 251°
2026-04-22 18:12 68.46137 28.39061 31897 ft 491 kts 241°
2026-04-22 18:12 68.43670 28.32498 31883 ft 505 kts 229°
2026-04-22 18:12 68.41807 28.28573 31894 ft 511 kts 226°
2026-04-22 18:13 68.35036 28.15624 31862 ft 511 kts 224°
2026-04-22 18:13 68.29243 28.04596 31844 ft 511 kts 225°
2026-04-22 18:14 68.23443 27.93449 31830 ft 511 kts 225°
2026-04-22 18:14 68.17659 27.82348 31835 ft 511 kts 225°
2026-04-22 18:14 68.14774 27.76820 31597 ft 513 kts 225°
2026-04-22 18:15 68.11856 27.71284 31239 ft 511 kts 225°
2026-04-22 18:15 68.08997 27.65851 30754 ft 512 kts 225°
2026-04-22 18:15 68.06068 27.60307 30154 ft 514 kts 225°
2026-04-22 18:15 68.03149 27.54786 29478 ft 518 kts 225°
2026-04-22 18:16 68.00208 27.49244 28792 ft 520 kts 225°
2026-04-22 18:16 67.97247 27.43693 28094 ft 523 kts 226°
2026-04-22 18:16 67.94280 27.38146 27385 ft 525 kts 225°
2026-04-22 18:16 67.91319 27.32614 26661 ft 527 kts 224°
2026-04-22 18:17 67.88300 27.27002 25910 ft 529 kts 224°
2026-04-22 18:17 67.85279 27.21441 25188 ft 529 kts 223°
2026-04-22 18:17 67.82262 27.15918 24685 ft 525 kts 224°
2026-04-22 18:17 67.79297 27.10503 24145 ft 521 kts 224°
2026-04-22 18:18 67.76280 27.04984 23568 ft 518 kts 224°
2026-04-22 18:18 67.73327 26.99580 23015 ft 516 kts 224°
2026-04-22 18:18 67.70408 26.94258 22446 ft 513 kts 223°
2026-04-22 18:18 67.67484 26.88940 21880 ft 510 kts 223°
2026-04-22 18:19 67.64578 26.83674 21366 ft 506 kts 223°
2026-04-22 18:19 67.61729 26.78532 20878 ft 501 kts 223°
2026-04-22 18:19 67.58881 26.73407 20386 ft 495 kts 223°
2026-04-22 18:19 67.56064 26.68348 19894 ft 491 kts 223°
2026-04-22 18:20 67.53242 26.63296 19392 ft 486 kts 223°
2026-04-22 18:20 67.50512 26.58425 18912 ft 481 kts 223°
2026-04-22 18:20 67.47745 26.53505 18437 ft 476 kts 223°
2026-04-22 18:20 67.45058 26.48731 17993 ft 471 kts 222°
2026-04-22 18:21 67.42384 26.43996 17548 ft 466 kts 222°
2026-04-22 18:21 67.39750 26.39347 17098 ft 461 kts 222°
2026-04-22 18:21 67.36994 26.34852 16645 ft 460 kts 214°
2026-04-22 18:21 67.34115 26.31219 16197 ft 460 kts 206°
2026-04-22 18:22 67.31149 26.28299 15757 ft 456 kts 203°
2026-04-22 18:22 67.28172 26.25574 15323 ft 452 kts 202°
2026-04-22 18:22 67.25222 26.22902 14889 ft 447 kts 202°
2026-04-22 18:22 67.22335 26.20268 14497 ft 441 kts 202°
2026-04-22 18:23 67.19475 26.17638 14075 ft 436 kts 203°
2026-04-22 18:23 67.16626 26.14995 13639 ft 431 kts 202°
2026-04-22 18:23 67.13834 26.12408 13198 ft 428 kts 203°
2026-04-22 18:24 67.08284 26.07278 12306 ft 421 kts 202°
2026-04-22 18:24 67.05544 26.04753 11849 ft 417 kts 202°
2026-04-22 18:24 67.00166 25.99815 10947 ft 409 kts 202°
2026-04-22 18:25 66.97507 25.97385 10488 ft 406 kts 202°
2026-04-22 18:25 66.94915 25.94738 10142 ft 396 kts 207°
2026-04-22 18:25 66.92470 25.91880 10057 ft 380 kts 208°
2026-04-22 18:26 66.87868 25.86436 9915 ft 351 kts 208°
2026-04-22 18:26 66.85663 25.83850 9686 ft 343 kts 208°
2026-04-22 18:26 66.83529 25.81346 9388 ft 337 kts 209°
2026-04-22 18:26 66.81400 25.78853 9016 ft 334 kts 208°
2026-04-22 18:27 66.79305 25.76399 8681 ft 330 kts 208°
2026-04-22 18:27 66.77225 25.73971 8360 ft 326 kts 208°
2026-04-22 18:27 66.75183 25.71593 8053 ft 322 kts 208°
2026-04-22 18:27 66.73171 25.69252 7750 ft 318 kts 208°
2026-04-22 18:28 66.71188 25.66949 7450 ft 314 kts 208°
2026-04-22 18:28 66.69222 25.64674 7147 ft 310 kts 208°
2026-04-22 18:28 66.67270 25.62419 6867 ft 307 kts 207°
2026-04-22 18:28 66.65346 25.60196 6576 ft 303 kts 208°
2026-04-22 18:29 66.63444 25.58009 6280 ft 300 kts 208°
2026-04-22 18:29 66.61556 25.55838 6005 ft 297 kts 208°
2026-04-22 18:29 66.59714 25.53718 5729 ft 295 kts 208°
2026-04-22 18:29 66.57838 25.51566 5444 ft 292 kts 208°
2026-04-22 18:30 66.56003 25.49464 5170 ft 290 kts 208°
2026-04-22 18:30 66.52374 25.45315 4634 ft 286 kts 208°
2026-04-22 18:30 66.50583 25.43273 4362 ft 284 kts 207°
2026-04-22 18:31 66.48807 25.41360 4208 ft 279 kts 199°
2026-04-22 18:31 66.46898 25.41178 3927 ft 272 kts 159°
2026-04-22 18:31 66.45381 25.43581 3698 ft 250 kts 121°
2026-04-22 18:31 66.44430 25.47032 3495 ft 240 kts 114°
2026-04-22 18:32 66.43562 25.50568 3259 ft 239 kts 112°
2026-04-22 18:32 66.43049 25.54285 3022 ft 215 kts 80°
2026-04-22 18:32 66.43369 25.57650 3025 ft 194 kts 53°
2026-04-22 18:32 66.44228 25.60080 3016 ft 179 kts 31°
2026-04-22 18:33 66.45195 25.61824 3011 ft 168 kts 31°
2026-04-22 18:33 66.46139 25.63542 3055 ft 165 kts 31°
2026-04-22 18:33 66.47006 25.65166 3039 ft 146 kts 31°
2026-04-22 18:33 66.47760 25.66591 3026 ft 131 kts 31°
2026-04-22 18:34 66.48480 25.67927 2936 ft 126 kts 30°
2026-04-22 18:34 66.49178 25.69229 2506 ft 127 kts 31°
2026-04-22 18:34 66.49880 25.70538 2139 ft 127 kts 30°
2026-04-22 18:34 66.50581 25.71862 1901 ft 128 kts 30°
2026-04-22 18:35 66.51288 25.73189 1714 ft 127 kts 31°
2026-04-22 18:35 66.51983 25.74517 1518 ft 125 kts 32°
2026-04-22 18:35 66.52683 25.75843 1351 ft 126 kts 29°
2026-04-22 18:35 66.53394 25.77150 1207 ft 126 kts 31°
2026-04-22 18:36 66.54089 25.78452 1004 ft 127 kts 34°
2026-04-22 18:36 66.54781 25.79818 874 ft 127 kts 33°
2026-04-22 18:36 66.55497 25.81113 712 ft 126 kts 41°
2026-04-22 18:36 66.56186 25.82427 772 ft 125 kts 37°
2026-04-22 18:37 66.56896 25.83839 936 ft 135 kts 36°
2026-04-22 18:37 66.57610 25.85201 1204 ft 126 kts 20°
2026-04-22 18:37 66.58362 25.85005 1882 ft 113 kts 322°
2026-04-22 18:37 66.58617 25.83255 2471 ft 116 kts 290°
2026-04-22 18:38 66.58592 25.80988 2419 ft 142 kts 265°
2026-04-22 18:38 66.57971 25.78942 2270 ft 162 kts 213°
2026-04-22 18:38 66.56907 25.77947 2189 ft 165 kts 203°
2026-04-22 18:39 66.54828 25.75886 2021 ft 162 kts 209°
2026-04-22 18:39 66.53853 25.74467 1824 ft 161 kts 218°
2026-04-22 18:39 66.52923 25.72972 1667 ft 158 kts 212°
2026-04-22 18:39 66.51846 25.72511 1342 ft 156 kts 163°
2026-04-22 18:40 66.51072 25.74086 1224 ft 143 kts 105°
2026-04-22 18:40 66.51156 25.76224 1258 ft 119 kts 37°
2026-04-22 18:40 66.51907 25.76839 1364 ft 121 kts 358°
2026-04-22 18:40 66.52763 25.76930 1388 ft 127 kts
2026-04-22 18:41 66.53591 25.77675 1152 ft 127 kts 22°
2026-04-22 18:41 66.54321 25.78950 1037 ft 130 kts 31°
2026-04-22 18:41 66.55026 25.80276 835 ft 126 kts 34°
2026-04-22 18:41 66.55708 25.81574 662 ft 119 kts 33°
2026-04-22 18:42 66.56143 25.82396 661 ft 49 kts 35°
2026-04-22 18:42 66.56251 25.82723 661 ft 16 kts 111°
2026-04-22 18:42 66.56200 25.82924 661 ft 11 kts 131°
2026-04-22 18:42 66.56135 25.82890 661 ft 11 kts 216°
2026-04-22 18:43 66.56064 25.82756 661 ft 13 kts 217°
2026-04-22 18:43 66.55983 25.82605 661 ft 10 kts 216°
2026-04-22 18:43 66.55937 25.82517 661 ft 9 kts 216°
2026-04-22 18:43 66.55880 25.82515 661 ft 9 kts 139°
2026-04-22 18:44 66.55836 25.82613 661 ft 5 kts 138°
2026-04-22 18:44 66.55830 25.82626 661 ft 0 kts 139°